Location: St. Louis
(38.6270°N, 90.1994°W)
Time: 10:19:09
(UTC-06:00)

Vanguard 2 Rocket - Pass Details

Date: 08 December 2021
Orbit: 553 x 3325 km, 32.9° (Epoch: 23 January)

Event Time Altitude Azimuth Distance (km) Brightness Sun altitude
Rises 22:48:46 0° 270° (W) 4,521 - -69.1°
Reaches altitude 10° 22:52:03 10° 257° (WSW) 3,916 - -69.5°
Maximum altitude 23:00:24 25° 207° (SSW) 3,671 - -70.6°
Drops below altitude 10° 23:12:21 10° 160° (SSE) 5,717 - -72.0°
Sets 23:18:42 0° 150° (SSE) 7,059 - -72.6°
